• In Hungary
  • List of Countries
  • For 7 days
  • Water Temperature
  • Satellite Maps
  • Weather Map
  • News
  • Weather Widgets
  • user-avatar
    Login

    Hourly Weather Zaluzhnyy

    Today, 16 December, Saturday

    Time Temperature Precipitation Wind Pressure Humidity
    00:00 +5°C° 0 mm 2 mps 756 mmHg 95%
    01:00 +5°C° 0 mm 2 mps 756 mmHg 95%
    02:00 +5°C° 0 mm 2 mps 757 mmHg 96%
    03:00 +6°C° 0 mm 2 mps 757 mmHg 96%
    04:00 +6°C° 0 mm 2 mps 757 mmHg 96%
    05:00 +6°C° 0 mm 2 mps 757 mmHg 96%
    06:00 +6°C° 0 mm 2 mps 757 mmHg 96%
    07:00 +5°C° 0 mm 3 mps 757 mmHg 94%
    08:00 +5°C° 0 mm 3 mps 757 mmHg 92%
    09:00 +5°C° 0 mm 4 mps 757 mmHg 90%
    10:00 +6°C° 0 mm 4 mps 757 mmHg 83%
    11:00 +7°C° 0 mm 4 mps 757 mmHg 75%
    12:00 +8°C° 0 mm 5 mps 757 mmHg 68%
    13:00 +8°C° 0 mm 5 mps 757 mmHg 67%
    14:00 +8°C° 0 mm 5 mps 757 mmHg 66%
    15:00 +9°C° 0 mm 5 mps 757 mmHg 65%
    16:00 +8°C° 0 mm 5 mps 757 mmHg 68%
    17:00 +8°C° 0 mm 5 mps 757 mmHg 70%
    18:00 +7°C° 0 mm 5 mps 757 mmHg 72%
    19:00 +7°C° 0 mm 6 mps 757 mmHg 75%
    20:00 +5°C° 0 mm 6 mps 757 mmHg 78%
    21:00 +5°C° 0 mm 6 mps 757 mmHg 81%
    22:00 +5°C° 0 mm 6 mps 757 mmHg 84%
    23:00 +4°C° 0 mm 6 mps 757 mmHg 87%

    Tomorrow, 17 December, Sunday

    Time Temperature Precipitation Wind Pressure Humidity
    00:00 +4°C° 0 mm 6 mps 757 mmHg 90%
    01:00 +4°C° 0 mm 6 mps 757 mmHg 90%
    02:00 +4°C° 0 mm 7 mps 757 mmHg 91%
    03:00 +3°C° 0 mm 7 mps 757 mmHg 91%
    04:00 +3°C° 0 mm 7 mps 757 mmHg 91%
    05:00 +3°C° 0 mm 7 mps 757 mmHg 90%
    06:00 +3°C° 0 mm 6 mps 757 mmHg 90%
    07:00 +3°C° 0 mm 6 mps 757 mmHg 89%
    08:00 +3°C° 0 mm 6 mps 757 mmHg 89%
    09:00 +3°C° 0 mm 6 mps 757 mmHg 88%
    10:00 +4°C° 0 mm 6 mps 757 mmHg 85%
    11:00 +5°C° 0 mm 7 mps 757 mmHg 81%
    12:00 +5°C° 0 mm 7 mps 757 mmHg 78%
    13:00 +7°C° 0 mm 6 mps 756 mmHg 77%
    14:00 +7°C° 0 mm 6 mps 756 mmHg 75%
    15:00 +7°C° 0 mm 6 mps 756 mmHg 74%
    16:00 +7°C° 0 mm 6 mps 756 mmHg 76%
    17:00 +5°C° 0 mm 6 mps 756 mmHg 78%
    18:00 +5°C° 0 mm 6 mps 756 mmHg 81%
    19:00 +5°C° 0 mm 6 mps 756 mmHg 82%
    20:00 +5°C° 0 mm 6 mps 756 mmHg 83%
    21:00 +4°C° 0 mm 6 mps 756 mmHg 84%
    22:00 +4°C° 0 mm 6 mps 756 mmHg 84%
    23:00 +4°C° 0 mm 6 mps 756 mmHg 84%

    Day after tomorrow, 18 December, Monday

    Time Temperature Precipitation Wind Pressure Humidity
    00:00 +4°C° 0 mm 6 mps 755 mmHg 84%
    01:00 +4°C° 0.1 mm 6 mps 755 mmHg 85%
    02:00 +4°C° 0.1 mm 6 mps 755 mmHg 85%
    03:00 +4°C° 0.1 mm 7 mps 755 mmHg 86%
    04:00 +4°C° 0.2 mm 7 mps 755 mmHg 86%
    05:00 +4°C° 0.2 mm 7 mps 754 mmHg 86%
    06:00 +4°C° 0.2 mm 7 mps 754 mmHg 86%
    07:00 +4°C° 0.1 mm 7 mps 754 mmHg 85%
    08:00 +4°C° 0.1 mm 7 mps 754 mmHg 85%
    09:00 +5°C° 0.1 mm 7 mps 754 mmHg 84%
    10:00 +5°C° 0.4 mm 7 mps 754 mmHg 83%
    11:00 +5°C° 0.4 mm 7 mps 754 mmHg 83%
    12:00 +6°C° 0.4 mm 7 mps 753 mmHg 82%
    13:00 +6°C° 0.3 mm 7 mps 753 mmHg 81%
    14:00 +6°C° 0.3 mm 7 mps 753 mmHg 80%
    15:00 +6°C° 0.3 mm 7 mps 753 mmHg 79%
    16:00 +7°C° 0.2 mm 6 mps 753 mmHg 82%
    17:00 +7°C° 0.2 mm 6 mps 753 mmHg 84%
    18:00 +7°C° 0.2 mm 6 mps 754 mmHg 87%
    19:00 +7°C° 0.1 mm 5 mps 754 mmHg 88%
    20:00 +7°C° 0.1 mm 4 mps 754 mmHg 89%
    21:00 +6°C° 0.1 mm 4 mps 754 mmHg 90%
    22:00 +6°C° 0.1 mm 4 mps 755 mmHg 90%
    23:00 +7°C° 0.1 mm 3 mps 755 mmHg 89%

    19 December, Tuesday

    Time Temperature Precipitation Wind Pressure Humidity
    00:00 +5°C° 0.1 mm 3 mps 755 mmHg 89%
    01:00 +5°C° 0.2 mm 3 mps 755 mmHg 88%
    02:00 +5°C° 0.2 mm 3 mps 756 mmHg 87%
    03:00 +5°C° 0.2 mm 2 mps 756 mmHg 87%
    04:00 +5°C° 0.2 mm 2 mps 756 mmHg 86%
    05:00 +5°C° 0.2 mm 2 mps 756 mmHg 85%
    06:00 +5°C° 0.2 mm 2 mps 756 mmHg 84%
    07:00 +4°C° 0.1 mm 2 mps 757 mmHg 82%
    08:00 +4°C° 0.1 mm 2 mps 757 mmHg 80%
    09:00 +3°C° 0.1 mm 3 mps 757 mmHg 78%
    10:00 +3°C° 0 mm 3 mps 758 mmHg 75%
    11:00 +3°C° 0 mm 3 mps 758 mmHg 72%
    12:00 +3°C° 0 mm 3 mps 758 mmHg 69%
    13:00 +3°C° 0 mm 3 mps 758 mmHg 68%
    14:00 +3°C° 0 mm 3 mps 758 mmHg 67%
    15:00 +3°C° 0 mm 3 mps 758 mmHg 66%
    16:00 +3°C° 0 mm 3 mps 758 mmHg 68%
    17:00 +2°C° 0 mm 3 mps 759 mmHg 70%
    18:00 +2°C° 0 mm 3 mps 759 mmHg 72%
    19:00 +1°C° 0 mm 3 mps 760 mmHg 73%
    20:00 +1°C° 0 mm 3 mps 760 mmHg 75%
    21:00 +1°C° 0 mm 3 mps 760 mmHg 76%
    22:00 0°C° 0 mm 3 mps 761 mmHg 77%
    23:00 0°C° 0 mm 3 mps 761 mmHg 78%

    20 December, Wednesday

    Time Temperature Precipitation Wind Pressure Humidity
    00:00 0°C° 0 mm 3 mps 761 mmHg 78%
    01:00 -1°C° 0 mm 2 mps 761 mmHg 79%
    02:00 -1°C° 0 mm 2 mps 761 mmHg 80%
    03:00 -1°C° 0 mm 2 mps 762 mmHg 80%
    04:00 -2°C° 0 mm 2 mps 762 mmHg 80%
    05:00 -2°C° 0 mm 2 mps 762 mmHg 81%
    06:00 0°C° 0 mm 1 mps 762 mmHg 81%
    07:00 0°C° 0 mm 1 mps 762 mmHg 80%
    08:00 0°C° 0 mm 1 mps 762 mmHg 79%
    09:00 0°C° 0 mm 1 mps 763 mmHg 77%
    10:00 +1°C° 0 mm 1 mps 763 mmHg 72%
    11:00 +2°C° 0 mm 1 mps 763 mmHg 68%
    12:00 +3°C° 0 mm 1 mps 763 mmHg 63%
    13:00 +3°C° 0 mm 1 mps 763 mmHg 62%
    14:00 +3°C° 0 mm 1 mps 762 mmHg 61%
    15:00 +3°C° 0 mm 1 mps 762 mmHg 60%
    16:00 +2°C° 0 mm 2 mps 762 mmHg 64%
    17:00 +1°C° 0 mm 2 mps 763 mmHg 67%
    18:00 -1°C° 0 mm 2 mps 763 mmHg 71%
    19:00 -1°C° 0 mm 2 mps 763 mmHg 72%
    20:00 -1°C° 0 mm 2 mps 763 mmHg 73%
    21:00 -1°C° 0 mm 2 mps 763 mmHg 74%
    22:00 -1°C° 0 mm 2 mps 763 mmHg 75%
    23:00 -1°C° 0 mm 2 mps 763 mmHg 76%

    21 December, Thursday

    Time Temperature Precipitation Wind Pressure Humidity
    00:00 -1°C° 0 mm 2 mps 763 mmHg 77%
    01:00 -1°C° 0 mm 2 mps 762 mmHg 77%
    02:00 -1°C° 0 mm 3 mps 762 mmHg 78%
    03:00 -1°C° 0 mm 3 mps 762 mmHg 78%
    04:00 -1°C° 0.1 mm 3 mps 762 mmHg 80%
    05:00 -1°C° 0.1 mm 3 mps 762 mmHg 82%
    06:00 -2°C° 0.1 mm 4 mps 761 mmHg 84%
    07:00 -1°C° 0.2 mm 4 mps 761 mmHg 86%
    08:00 -1°C° 0.2 mm 4 mps 761 mmHg 88%
    09:00 -1°C° 0.2 mm 4 mps 761 mmHg 89%
    10:00 -1°C° 0.8 mm 4 mps 761 mmHg 90%
    11:00 -1°C° 0.8 mm 4 mps 761 mmHg 90%
    12:00 0°C° 0.8 mm 4 mps 760 mmHg 91%
    13:00 0°C° 0.8 mm 4 mps 760 mmHg 92%
    14:00 0°C° 0.8 mm 4 mps 760 mmHg 93%
    15:00 -1°C° 0.8 mm 4 mps 759 mmHg 94%
    16:00 0°C° 0.6 mm 3 mps 759 mmHg 95%
    17:00 0°C° 0.6 mm 3 mps 759 mmHg 96%
    18:00 0°C° 0.6 mm 3 mps 759 mmHg 97%
    19:00 0°C° 0.1 mm 3 mps 759 mmHg 97%
    20:00 +1°C° 0.1 mm 2 mps 759 mmHg 98%
    21:00 +1°C° 0.1 mm 2 mps 759 mmHg 98%
    22:00 +1°C° 0 mm 2 mps 758 mmHg 98%
    23:00 +1°C° 0 mm 2 mps 758 mmHg 98%
    Show more